Content
SEND FEEDBACK

Daily
Averages
Monthly
Summary
Malaysia

KOTA KINABALU, MALAYSIA


Home > Asia > Malaysia
Elevation: 10 feet     Latitude: 05 55N     Longitude: 116 03E

WEATHER
 
SELECT A DAY
Number of Records: 269,933;   Date Range: 8/9/96 - 8/10/14
 
SHARE

PRINT THIS DATA

[ ← Previous Day ]
WEATHER ALMANAC - JANUARY 20, 2013
[ Next Day → ]
[ °C ]   °F
Weather ElementAverageHighLow
Temperature79.1 °F86 °F (10:30 am)76 °F (5:00 am)
Dewpoint75.4 °F77 °F (11:00 am)73.4 °F (4:00 am)
Humidity88.2 %94 % (12:30 am)70 % (10:30 am)
Barometer29.87 in29.93 in (8:00 am)29.83 in (2:30 am)
Wind Speed4.8 mph13.8 mph (7:30 pm)
Weather ElementAverage
Visibility6.7 mi
Wind DirectionESE (100 °)

Weather ElementTotal
Precipitation---
Cooling Degree Days16 (Base 65)
Growing Degree Days31 (Base 50)
Averaged from 55 records on January 20, 2013
WEATHER CONDITIONS BREAKOUT
WIND DIRECTION BREAKOUT
WEATHER BY HOUR - JANUARY 20, 2013
[ °C ]   °F
Local TimeTemperatureDewpointHumidityBarometerVisibilityWind DirectionWind SpeedGust SpeedPrecipitationEventsConditions
12:30 AM77.0 °F75.2 °F94 %29.86 in6.2 miESE (110°)3.5 mphMostly Cloudy
1:00 AM77.0 °F75.2 °F94 %29.86 in6.2 miESE (110°)3.5 mphMostly Cloudy
1:30 AM77.0 °F75.2 °F94 %29.86 in6.2 miEast (100°)1.2 mphMostly Cloudy
2:00 AM77.0 °F75.0 °F91 %29.86 in11.0 miEast (90°)2.3 mphScattered Clouds
2:00 AM77.0 °F75.2 °F94 %29.86 in6.2 miEast (90°)2.3 mphMostly Cloudy
2:30 AM77.0 °F75.2 °F94 %29.83 in6.2 miESE (110°)3.5 mphMostly Cloudy
3:00 AM77.0 °F75.2 °F94 %29.83 in6.2 miSSE (150°)3.5 mphMostly Cloudy
3:30 AM77.0 °F75.2 °F94 %29.83 in6.2 miEast (100°)2.3 mphMostly Cloudy
4:00 AM77.0 °F73.4 °F89 %29.83 in6.2 miESE (110°)3.5 mphMostly Cloudy
4:30 AM77.0 °F75.2 °F94 %29.86 in6.2 miESE (120°)3.5 mphMostly Cloudy
5:00 AM76.0 °F74.0 °F92 %29.87 in11.0 miEast (80°)2.3 mphScattered Clouds
5:00 AM77.0 °F73.4 °F89 %29.86 in6.2 miEast (80°)2.3 mphMostly Cloudy
5:30 AM77.0 °F73.4 °F89 %29.86 in6.2 miEast (90°)3.5 mphMostly Cloudy
6:00 AM77.0 °F73.4 °F89 %29.86 in6.2 miEast (100°)2.3 mphMostly Cloudy
6:30 AM77.0 °F73.4 °F89 %29.89 in6.2 miEast (100°)4.6 mphMostly Cloudy
7:00 AM77.0 °F73.4 °F89 %29.89 in6.2 miENE (70°)3.5 mphMostly Cloudy
7:30 AM78.8 °F73.4 °F83 %29.92 in6.2 miEast (100°)2.3 mphMostly Cloudy
8:00 AM79.0 °F75.0 °F83 %29.93 in17.0 miEast (80°)2.3 mphScattered Clouds
8:00 AM78.8 °F75.2 °F89 %29.92 in6.2 miEast (80°)2.3 mphMostly Cloudy
8:30 AM78.8 °F75.2 °F89 %29.92 in6.2 miEast (100°)4.6 mphMostly Cloudy
9:00 AM80.6 °F75.2 °F84 %29.92 in6.2 miEast (100°)3.5 mphMostly Cloudy
9:30 AM80.6 °F75.2 °F84 %29.92 in6.2 miESE (110°)3.5 mphMostly Cloudy
10:00 AM84.2 °F75.2 °F74 %29.92 in6.2 miENE (60°)4.6 mphMostly Cloudy
10:30 AM86.0 °F75.2 °F70 %29.92 in6.2 miNNE (20°)4.6 mphMostly Cloudy
11:00 AM85.0 °F77.0 °F70 %29.92 in17.0 miNNW (330°)3.5 mphPartly Cloudy
11:00 AM84.2 °F77.0 °F79 %29.92 in6.2 miNNW (330°)3.5 mphMostly Cloudy
11:30 AM84.2 °F77.0 °F79 %29.92 in6.2 miNorth (360°)4.6 mphMostly Cloudy
12:00 PM84.2 °F75.2 °F74 %29.89 in6.2 miNNE (30°)9.2 mphMostly Cloudy
12:30 PM82.4 °F77.0 °F84 %29.89 in6.2 miNNE (20°)9.2 mphMostly Cloudy
1:00 PM82.4 °F77.0 °F84 %29.86 in6.2 miNNE (20°)5.8 mphRainLight Rain
1:30 PM80.6 °F77.0 °F89 %29.86 in5.0 miNNE (20°)5.8 mphRainLight Rain
2:00 PM80.0 °F77.0 °F88 %29.86 in6.0 miENE (60°)4.6 mphRainLight Rain
2:00 PM80.6 °F77.0 °F89 %29.83 in6.2 miENE (60°)4.6 mphRainLight Rain
2:30 PM82.4 °F77.0 °F84 %29.83 in6.2 miNE (50°)5.8 mphRainLight Rain
3:00 PM82.4 °F77.0 °F84 %29.83 in6.2 miNNE (20°)4.6 mphRainLight Rain
3:30 PM80.6 °F77.0 °F89 %29.83 in6.2 miNNE (20°)5.8 mphRainLight Rain
4:00 PM80.6 °F77.0 °F89 %29.83 in5.0 miNE (40°)5.8 mphRainLight Rain
4:30 PM78.8 °F77.0 °F94 %29.83 in3.7 miENE (60°)5.8 mphRainRain
5:00 PM78.0 °F76.0 °F94 %29.86 in4.0 miENE (60°)4.6 mphRainLight Rain
5:00 PM78.8 °F77.0 °F94 %29.83 in4.3 miENE (60°)4.6 mphRainLight Rain
5:30 PM78.8 °F77.0 °F94 %29.86 in6.2 miNE (50°)4.6 mphRainLight Rain
6:00 PM78.8 °F75.2 °F89 %29.86 in4.3 miENE (60°)6.9 mphRainLight Rain
6:30 PM77.0 °F75.2 °F94 %29.86 in5.0 miNE (40°)4.6 mphRainLight Rain
7:00 PM77.0 °F73.4 °F89 %29.86 in6.2 miNE (50°)10.4 mphRainLight Rain
7:30 PM77.0 °F73.4 °F89 %29.86 in6.2 miENE (60°)13.8 mphMostly Cloudy
8:00 PM77.0 °F74.0 °F87 %29.87 in11.0 miENE (70°)6.9 mphRainLight Rain
8:00 PM77.0 °F73.4 °F89 %29.86 in6.2 miENE (70°)6.9 mphMostly Cloudy
8:30 PM77.0 °F73.4 °F89 %29.86 in6.2 miNE (40°)3.5 mphMostly Cloudy
9:00 PM77.0 °F75.2 °F94 %29.86 in6.2 miSSW (200°)3.5 mphMostly Cloudy
9:30 PM78.8 °F75.2 °F89 %29.89 in6.2 miWSW (240°)6.9 mphMostly Cloudy
10:00 PM78.8 °F75.2 °F89 %29.89 in6.2 miSW (220°)10.4 mphMostly Cloudy
10:30 PM78.8 °F77.0 °F94 %29.86 in6.2 miSW (220°)11.5 mphMostly Cloudy
11:00 PM79.0 °F76.0 °F88 %29.89 in11.0 miSE (140°)3.5 mphPartly Cloudy
11:00 PM78.8 °F77.0 °F94 %29.89 in6.2 miSE (140°)3.5 mphMostly Cloudy
11:30 PM77.0 °F75.2 °F94 %29.89 in6.2 miEast (100°)4.6 mphMostly Cloudy
Hourly data recorded from WBKK, located miles away from Kota Kinabalu, Malaysia







STORIES FROM OUR PARTNERS